SPACEMOBILE-002

Last updated on Tue Oct 08 2024 00:02:04 GMT+0000 (Coordinated Universal Time)

1 61048U 24163D 24281.38990908 .00008666 00000+0 43764-3 0 9990 2 61048 52.9782 267.3517 0013463 45.7996 314.4100 15.17800991 3795
UTC large
Height (km)
Speed (km/s)
/
Latitude / Longitude
Inclination (degrees)
Orbital Period (minutes)
Azimuth
Elevation
Range (km)
Doppler Factor

Next 0 passes for location: London (51.5072 / 0.1276)

Sorry there are no passes over London.